Aérodrome :
LOGIN :

S'inscrire | Disclaimer

   EN    FR    IT 

 










Légende :    VFR   VFR Marginal   IFR   IFR Intensif   IFR Très Intensif
Visi : 
Plafond : 
>= 8 km
>= 3000ft
5 à 8 km
1000 à 3000 ft
1500m à 5 km
500 à 1000 ft
800 à 1500m
200 à 500 ft
< 800m
< 200 ft
Symboles :   Orages  Brouillard  Fortes neiges  Fortes précipitations  Vent > 20 kt
SIGMETs :   Divers  Orages  Givrage  Turbulence  Onde Orograph.  Cendres Volcan.






- Altitude de l'aérodrome : 18 ft


LIPC - Cervia AFB Ravenna

DERNIER METAR :
  • 270655Z VRB02KT 9999 SCT040 05/03 Q0994 RMK BKN SCT200 VIS MIN 9999 WIND THR11 VRB02KT WIND THR29 13001KT BLU

METARs EXPIRÉS :
  • 270555Z VRB02KT 9999 SCT040 05/03 Q0994 RMK BKN SCT200 VIS MIN 9999 WIND THR11 02003KT WIND THR29 20001KT BLU

TAF TAF LIPC
Valide du 27 à 06h jusqu'au 27 à 15h UTC


270500Z 2706/2715 VRB02KT 9999 SCT040 SCT070



MET'MAP, la Météo Aéronautique d'un coup d'oeil ! - Copyright ORBIFLY Décembre 2007 - Disclaimer

ORBIFLY MET'MAP TEAM :

Programmation & Développement : Alexandra Zaïnal
Sur une idée originale de : Baudouin d'Aumeries
Assistance à la programmation : Marc-Olivier Méhu
Soutien technique & logistique : Manuel Goepfert

Contact : metmap@orbifly.com




SOURCES & CREDITS :

   NOAA